Miscellaneous Local Product
Issued by NWS North Platte, NE

Home | Current Version | Previous Version | Text Only | Print | Product List | Glossary On
Versions: 1 2 3 4 5 6 7 8 9 10 11 12 13 14 15 16 17 18 19 20 21 22 23 24 25 26 27 28 29 30 31 32 33 34 35 36 37 38 39 40 41 42 43 44 45 46 47 48 49 50
000
AXUS43 KLBF 200910
MISLBF


WESTERN AND NORTH CENTRAL NEBRASKA HOURLY WEATHER ROUNDUP
NATIONAL WEATHER SERVICE NORTH PLATTE NE
300 AM CST SAT DEC 20 2014

***STATIONS NOT REPORTING VARIABLES SUCH AS SKY/WEATHER OR
PRESSURE ARE PROVIDED BY THE NEBRASKA DEPARTMENT OF
ROADS...RAWS...AND APRS NETWORKS...AND ARE NOT UNDER
NATIONAL WEATHER SERVICE QUALITY CONTROL***

...OBSERVATIONS IN AND NEAR THE EASTERN PANHANDLE OF NEBRASKA...

CITY           SKY/WX    TMP DP  RH WIND       PRES   REMARKS
PINE RIDGE     CLEAR     22  16  78 W5        29.94S WCI  16
CHADRON        PTCLDY    14  10  84 SW3       29.95F
ALLIANCE       PTCLDY    10   8  92 W5        29.96S WCI   2
SIDNEY         PTCLDY    15  11  83 W5        29.99S WCI   8
WHITECLAY        N/A     18  13  80 SE6         N/A  WCI  10
CRESCENT LAKE    N/A     22  18  84 CALM        N/A
LISCO            N/A     18  13  82 CALM        N/A
BIG SPRINGS      N/A     18  16  92 CALM        N/A
$$

...OBSERVATIONS IN NORTH CENTRAL NEBRASKA...

CITY           SKY/WX    TMP DP  RH WIND       PRES   REMARKS
VALENTINE      CLEAR     17  14  88 SW6       29.98S WCI   9
THEDFORD       CLEAR     19  17  92 W5        30.01R WCI  13
AINSWORTH      CLEAR     21  17  85 SW6       29.98S WCI  14
O`NEILL        FOG      N/A N/A N/A CALM      30.01S VSB 1/4
BROKEN BOW     CLEAR     22  18  85 CALM      30.01R
BROWNLEE         N/A     22  17  79 CALM        N/A
SPRINGVIEW       N/A     12  10  90 CALM        N/A
BREWSTER         N/A     21  20  96 W3          N/A
ROSE             N/A     26  26 100 MISG        N/A
SARGENT          N/A     13  11  93 CALM        N/A
COMSTOCK         N/A     26  24  96 W3          N/A
CHAMBERS         N/A     22  22  98 CALM        N/A
EWING            N/A     27  26  97 CALM        N/A
$$

...OBSERVATIONS IN SOUTHWEST NEBRASKA AND FAR NORTHEAST COLORADO...

CITY           SKY/WX    TMP DP  RH WIND       PRES   REMARKS
HOLYOKE        FAIR      19  16  86 W7        30.01S WCI  10
IMPERIAL       CLEAR     22  17  81 W6        30.02S WCI  14
OGALLALA       CLEAR     15  13  93 W3        30.02S
NORTH PLATTE   CLEAR     18  15  88 CALM      30.03R FOG
MCCOOK         PTCLDY    25  22  88 W9        30.04R WCI  15
LEXINGTON      CLEAR     23  21  93 W10       30.03S FOG     WCI  12
PAXTON           N/A     21  18  89 W3          N/A
BRADY            N/A     23  20  89 CALM        N/A
GOTHENBURG       N/A     26  22  86 W3          N/A
CALLAWAY         N/A     23  21  91 W3          N/A
$$

...NORTH PLATTE AREA...

CITY           SKY/WX    TMP DP  RH WIND       PRES   REMARKS
AIRPORT        CLEAR     18  15  88 CALM      30.03R FOG
DOWNTOWN         N/A     21  19  91 CALM        N/A
$$

...SOME WEATHER OBSERVATIONS FROM AROUND THE REGION...

CITY           SKY/WX    TMP DP  RH WIND       PRES   REMARKS
DENVER         CLEAR     27  15  61 SW12      29.99S WCI  17
LARAMIE        PTCLDY    27  16  63 W15       30.02S WCI  15
CHEYENNE       PTCLDY    34  17  50 W12       29.96F WCI  25
SCOTTSBLUFF    PTCLDY    16  12  84 N5        29.97S WCI   9
RAPID CITY     CLEAR     24  17  74 NW9       29.89F WCI  14
PIERRE         FOG       15  11  83 E3        29.96S VSB 1/4
WINNER         FAIR      21  15  78 S3        29.97S
SIOUX FALLS    CLOUDY    31  28  89 S10       30.06S WCI  22
OMAHA          FRZ DRZL  31  30  96 SE9       30.14S FOG     WCI  23
GRAND ISLAND   CLOUDY    31  30  96 CALM      30.05S FOG
KANSAS CITY    CLOUDY    32  31  96 CALM      30.20R FOG
WICHITA        CLEAR     35  31  85 S8        30.16S WCI  29
HAYS           CLEAR     28  19  69 SW7       30.07R WCI  21
LIBERAL        CLEAR     30  25  80 SW10      30.11S WCI  21
GOODLAND       PTCLDY    30  27  88 W9        30.03R WCI  22
$$



USA.gov is the U.S. government's official web portal to all federal, state and local government web resources and services.